Location: Marstown
(39.5056°N, 77.0820°W)
Time: 07:01:48
(UTC-04:00)

Hubble Space Telescope - Visible Passes

Search period start: 26 May 2017 00:00
Search period end: 05 June 2017 00:00
Orbit: 538 x 542 km, 28.5° (Epoch: 25 May)

Date Brightness Start Highest point End Pass type
(mag) Time Alt. Az. Time Alt. Az. Time Alt. Az.
29 May 2.7 22:06:40 10° SSW 22:08:03 14° SSW 22:08:03 14° SSW visible
30 May 2.5 21:56:22 10° SW 21:58:52 17° S 21:58:52 17° S visible
31 May 2.4 21:46:07 10° SW 21:48:54 17° S 21:49:32 17° SSE visible
01 Jun 2.4 21:35:56 10° SW 21:38:44 18° S 21:40:05 15° SSE visible
02 Jun 2.5 21:25:48 10° SW 21:28:34 17° S 21:30:34 13° SSE visible
03 Jun 2.6 21:15:43 10° SW 21:18:23 17° S 21:20:58 10° SE visible
04 Jun 2.7 21:05:41 10° SW 21:08:12 16° S 21:10:43 10° SSE visible
